[[{"header":{"parameterUnit":"m.s-1","parameterCategory":1,"la1":30.2991,"la2":30.254,"lo1":-89.0895,"lo2":-89.0444,"dy":0.0017,"dx":0.0017,"nx":28,"ny":28,"refTime":"2024-06-26T21:00:00:Z","depth":0,"parameterNumber":2,"parameterNumberName":"U-component_of_WINDS"},"data":[0,0,0,0,0,0,0,0,0,0,0,0,0,0,0,0,0,0,0,0,0,0,0,0,0,0,0,0,0,0,0,0,0,0,0,0,0,0,0,0,0,0,0,0,0,0,0,0,0,0,0,0,0,0,0,0,0,0,4.4785,4.4786,0,4.4885,4.4886,4.4888,4.4848,4.4846,4.4843,4.4841,4.4949,4.4954,4.4959,0,0,0,0,0,0,0,0,0,0,0,0,0,4.4564,4.4568,4.4785,4.4786,4.4787,4.4885,4.4887,4.4888,4.4849,4.4846,4.4843,4.484,4.4947,4.4953,4.4959,0,0,0,0,0,0,0,0,0,0,0,0,0,4.4662,4.4569,4.4785,4.478,4.478,4.4885,4.4887,4.4888,4.4849,4.4846,4.4842,4.4839,4.4945,4.4953,4.496,4.5078,0,0,4.4983,4.4987,0,0,0,0,0,0,0,0,4.4656,4.467,4.4779,4.478,4.4781,4.485,4.4848,4.4952,4.485,4.4823,4.4841,4.4837,4.4919,4.4929,4.4956,4.5083,4.5087,4.4984,4.4989,4.4992,4.4994,0,0,0,0,0,0,0,4.4649,4.4665,4.4825,4.4781,4.4782,4.4774,4.4784,4.4868,4.489,4.4825,4.4823,4.4835,4.4919,4.4948,4.4958,4.5089,4.4984,4.4991,4.4995,4.4998,4.5317,4.5321,0,0,0,0,0,0,4.4642,4.466,4.4822,4.4828,4.4708,4.478,4.4792,4.4832,4.4889,4.4894,4.4838,4.4832,4.4937,4.4949,4.4962,4.5102,4.4992,4.4999,4.5003,4.5313,4.5318,4.5322,0,0,0,0,0,0,4.4637,4.4657,4.4818,4.4743,4.4763,4.4788,4.4833,4.4836,4.4865,4.4898,4.4902,4.4863,4.4935,4.4951,4.5049,4.5105,4.5002,4.5009,4.5308,4.5315,4.532,4.5384,0,0,0,0,0,0,4.4631,4.4655,4.4699,4.4744,4.4767,4.4902,4.4837,4.484,4.4877,4.4871,4.4923,4.4928,4.4933,4.5037,4.5056,4.5114,4.5015,4.5304,4.5311,4.5318,4.5377,4.5391,4.5404,0,0,0,0,0,4.4623,4.4714,4.4701,4.4721,4.4822,4.4905,4.4918,4.4921,4.4882,4.4927,4.4948,4.4927,4.5096,4.5048,4.5068,4.5129,4.53,4.5309,4.5318,4.5371,4.5389,4.5403,0,0,0,0,0,0,4.4676,4.472,4.4706,4.4814,4.4856,4.4898,4.4955,4.4939,4.4994,4.4987,4.4989,4.5001,4.5101,4.5125,4.5071,4.5246,4.5192,4.5206,4.5226,4.5243,4.5256,4.5248,4.5022,0,0,0,0,0,4.47,4.4762,4.4798,4.489,4.4912,4.493,4.4966,4.4964,4.5008,4.5026,4.5055,4.51,4.5163,4.5204,4.5265,4.5381,4.5391,4.5433,4.5446,4.5457,4.5468,4.5531,4.5549,4.5351,4.5351,4.5351,0,0,4.4751,4.4783,4.4822,4.4902,4.4934,4.4999,4.4945,4.5017,4.5065,4.5037,4.513,4.5154,4.5204,4.5311,4.536,4.5334,4.5525,4.5468,4.5477,4.5482,4.5542,4.556,4.5577,4.5357,4.5356,4.5355,0,0,4.4876,4.4907,4.4986,4.5019,4.5068,4.5079,4.5099,4.5143,4.5157,4.525,4.523,4.5289,4.5398,4.5435,4.5467,4.5607,4.5589,4.5627,4.5696,4.5757,4.5773,4.5787,4.5835,4.5853,4.5638,4.5638,4.5638,0,4.4933,4.5029,4.5029,4.5102,4.5138,4.5114,4.5195,4.5228,4.5295,4.532,4.5291,4.5426,4.5459,4.5573,4.5607,4.5635,4.5657,4.562,4.577,4.5784,4.5797,4.5844,4.5862,4.5642,4.5642,4.5642,4.5641,0,4.5097,4.5164,4.5223,4.5286,4.5328,4.5405,4.5418,4.5461,4.5456,4.5471,4.5567,4.5605,4.5672,4.5699,4.5696,4.5814,4.5796,4.5769,4.5715,4.582,4.5864,4.5882,4.5648,4.5647,4.5646,4.5645,0,0,4.5257,4.5319,4.534,4.5368,4.5421,4.5473,4.555,4.5614,4.565,4.5698,4.5762,4.5855,4.5829,4.5866,4.5867,4.5921,4.6028,4.5886,4.5888,4.591,4.6159,4.6179,4.6199,4.6017,4.602,4.6023,4.6155,0,4.5386,4.5517,4.5519,4.5641,4.5703,4.5682,4.5748,4.5788,4.5805,4.5861,4.588,4.5945,4.5907,4.5929,4.5981,4.6003,4.6078,4.5994,4.6077,4.6079,4.6063,4.6222,4.6243,4.6366,4.6172,4.6175,4.6177,0,4.5553,4.5603,4.573,4.5773,4.5799,4.5858,4.5917,4.5971,4.6016,4.6025,4.6066,4.6059,4.6138,4.6082,4.6191,4.6134,4.6169,4.6185,4.619,4.6196,4.6133,4.6232,4.6405,4.6423,4.6204,4.6202,4.62,0,4.5655,4.5756,4.5844,4.5869,4.5922,4.5964,4.5988,4.603,4.6068,4.612,4.6145,4.6206,4.624,4.6288,4.6297,4.6256,4.6407,4.6352,4.6416,4.6415,4.6447,4.6445,4.6626,4.6472,4.6471,4.6471,4.6471,0,4.5797,4.5875,4.5891,4.5945,4.6032,4.6035,4.6122,4.6143,4.6181,4.624,4.6226,4.6282,4.6292,4.6351,4.636,4.6448,4.6464,4.6473,4.6474,4.6473,4.6472,4.6495,4.6486,4.6476,4.6475,4.6474,4.6473,0,4.5926,4.5939,4.6034,4.6076,4.6088,4.6151,4.6187,4.624,4.6255,4.633,4.6347,4.6372,4.644,4.6454,4.6536,4.6542,4.6647,4.664,4.663,4.6629,4.6691,4.6685,4.6893,4.692,4.6749,4.6751,4.6752,0,4.6015,4.6074,4.6122,4.6159,4.6185,4.6247,4.6285,4.6291,4.6332,4.6388,4.6434,4.65,4.6553,4.6664,4.6689,4.6752,4.6746,4.6815,4.6755,4.6752,4.6745,4.6741,4.6746,4.6825,4.6827,4.6829,4.683,0,4.617,4.6174,4.6229,4.6287,4.6333,4.6379,4.6423,4.6455,4.6467,4.6514,4.6582,4.6624,4.6706,4.6772,4.6835,4.6861,4.6848,4.6849,4.6866,4.6865,4.6857,4.6861,4.666,4.6844,4.6842,4.6841,4.6841,4.684,4.6281,4.6332,4.6374,4.6436,4.6469,4.651,4.6561,4.6583,4.6639,4.6706,4.6706,4.6781,4.6826,4.6908,4.6938,4.6998,4.6976,4.7002,4.7009,4.7015,4.7019,4.6848,4.7009,4.7009,4.7009,4.7008,4.7008,0,4.6435,4.646,4.6517,4.6578,4.6627,4.661,4.6658,4.67,4.6765,4.6807,4.6859,4.6938,4.7003,4.7033,4.7097,4.7139,4.7134,4.7155,4.7151,4.7157,4.7036,4.7013,4.7158,4.7158,4.7158,4.7158,4.7157,4.7157,4.652,4.6606,4.6615,4.6717,4.6743,4.6815,4.6843,4.6882,4.6915,4.7003,4.7056,4.7075,4.7113,4.7179,4.7237,4.7245,4.7268,4.7292,4.7296,4.7182,4.7166,4.7152,4.713,4.7297,4.7297,4.7413,4.7414,4.7415]},{"header":{"parameterUnit":"m.s-1","parameterCategory":1,"la1":30.2991,"la2":30.254,"lo1":-89.0895,"lo2":-89.0444,"dy":0.0017,"dx":0.0017,"nx":28,"ny":28,"refTime":"2024-06-26T21:00:00:Z","depth":0,"parameterNumber":3,"parameterNumberName":"V-component_of_WINDS"},"data":[0,0,0,0,0,0,0,0,0,0,0,0,0,0,0,0,0,0,0,0,0,0,0,0,0,0,0,0,0,0,0,0,0,0,0,0,0,0,0,0,0,0,0,0,0,0,0,0,0,0,0,0,0,0,0,0,0,0,4.0503,4.0504,0,4.0563,4.0564,4.0564,4.0594,4.0594,4.0594,4.0594,4.0649,4.065,4.0651,0,0,0,0,0,0,0,0,0,0,0,0,0,4.0407,4.0409,4.0503,4.0504,4.0505,4.0563,4.0564,4.0564,4.0594,4.0594,4.0594,4.0594,4.0648,4.065,4.0651,0,0,0,0,0,0,0,0,0,0,0,0,0,4.0456,4.0409,4.0503,4.0526,4.0529,4.0563,4.0564,4.0565,4.0594,4.0594,4.0594,4.0594,4.0647,4.065,4.0652,4.0664,0,0,4.0658,4.0659,0,0,0,0,0,0,0,0,4.0453,4.0459,4.0522,4.0525,4.0528,4.0571,4.055,4.0598,4.0594,4.0569,4.0594,4.0594,4.0622,4.0626,4.0637,4.0667,4.0669,4.0658,4.066,4.0661,4.0661,0,0,0,0,0,0,0,4.045,4.0457,4.0526,4.0523,4.0527,4.0532,4.0539,4.0559,4.0594,4.0571,4.0574,4.0581,4.0624,4.0635,4.0639,4.067,4.0658,4.066,4.0662,4.0662,4.0711,4.0711,0,0,0,0,0,0,4.0443,4.0454,4.0525,4.0528,4.049,4.0533,4.0541,4.0557,4.0594,4.06,4.0581,4.0582,4.0632,4.0636,4.0641,4.0658,4.0661,4.0663,4.0664,4.0711,4.0711,4.0711,0,0,0,0,0,0,4.0441,4.045,4.0522,4.0492,4.0502,4.0535,4.0553,4.0558,4.057,4.0602,4.0607,4.0586,4.0632,4.0638,4.0658,4.066,4.0664,4.0666,4.0711,4.0711,4.0711,4.0692,0,0,0,0,0,0,4.0438,4.0449,4.0455,4.0492,4.0503,4.0541,4.0553,4.0559,4.0574,4.0577,4.0608,4.0614,4.0632,4.0655,4.0661,4.0663,4.0667,4.0711,4.0711,4.0711,4.0693,4.0691,4.069,0,0,0,0,0,4.0435,4.0446,4.0456,4.0464,4.0513,4.0541,4.0547,4.057,4.0574,4.058,4.0601,4.0613,4.0659,4.0657,4.0663,4.0667,4.0711,4.0711,4.0711,4.0693,4.0692,4.069,0,0,0,0,0,0,4.0407,4.0451,4.0462,4.0486,4.051,4.0546,4.0554,4.0568,4.0589,4.059,4.0616,4.0622,4.064,4.0655,4.0652,4.068,4.0686,4.0688,4.067,4.0669,4.0668,4.0664,4.0669,0,0,0,0,0,4.0404,4.0425,4.0462,4.0479,4.0491,4.052,4.0533,4.055,4.0574,4.0583,4.0605,4.0627,4.0646,4.0658,4.0678,4.0695,4.0701,4.07,4.0699,4.0698,4.0698,4.0708,4.0707,4.0712,4.0712,4.0712,0,0,4.0396,4.0424,4.0435,4.0474,4.0495,4.0514,4.0529,4.0549,4.0563,4.0586,4.0607,4.0624,4.0649,4.0668,4.0677,4.0681,4.0699,4.0698,4.0697,4.0698,4.0708,4.0707,4.0707,4.0712,4.0712,4.0712,0,0,4.0394,4.0417,4.0434,4.0455,4.0486,4.0506,4.0509,4.0544,4.0556,4.0579,4.0596,4.0612,4.0645,4.0663,4.0676,4.0679,4.0691,4.0685,4.0679,4.0687,4.0687,4.0687,4.0688,4.0688,4.0685,4.0685,4.0685,0,4.0381,4.0414,4.0441,4.0461,4.0476,4.05,4.0516,4.0534,4.0569,4.0578,4.0582,4.0624,4.0643,4.0666,4.0667,4.0677,4.0681,4.0682,4.0686,4.0686,4.0686,4.0687,4.0687,4.0684,4.0685,4.0685,4.0685,0,4.0396,4.0418,4.0427,4.0464,4.048,4.0498,4.0525,4.0539,4.0553,4.0571,4.0593,4.0616,4.0641,4.0647,4.066,4.0672,4.0673,4.0681,4.0688,4.0684,4.0685,4.0686,4.0683,4.0683,4.0684,4.0684,0,0,4.0378,4.0429,4.0432,4.0448,4.0484,4.05,4.0518,4.0545,4.0555,4.0578,4.0592,4.062,4.0628,4.0642,4.0657,4.0665,4.0666,4.0672,4.0673,4.067,4.0679,4.0673,4.0674,4.0674,4.0674,4.0674,4.0677,0,4.038,4.0417,4.0441,4.0466,4.0486,4.0509,4.0524,4.0546,4.0564,4.0581,4.0599,4.0619,4.0628,4.0637,4.0645,4.0664,4.0668,4.0664,4.0686,4.0687,4.068,4.0675,4.0668,4.067,4.0678,4.0678,4.0678,0,4.0388,4.0413,4.0441,4.0475,4.0485,4.0498,4.0524,4.0541,4.0566,4.0578,4.0595,4.0611,4.0628,4.0633,4.0657,4.0653,4.0663,4.0674,4.0674,4.0677,4.0682,4.0677,4.0671,4.0671,4.0679,4.0679,4.0679,0,4.0372,4.0412,4.0434,4.0448,4.0488,4.0497,4.0513,4.0538,4.0553,4.0574,4.0583,4.0606,4.0618,4.0634,4.0654,4.0656,4.0675,4.0682,4.0684,4.0684,4.0688,4.0687,4.0683,4.0694,4.0694,4.0694,4.0694,0,4.0373,4.0389,4.0428,4.0441,4.046,4.0486,4.0503,4.0521,4.0543,4.0559,4.0578,4.0592,4.0618,4.0635,4.065,4.0667,4.0672,4.0681,4.0685,4.068,4.0679,4.0687,4.0687,4.0694,4.0694,4.0694,4.0694,0,4.0358,4.0385,4.041,4.0447,4.0456,4.0468,4.0497,4.051,4.0529,4.0548,4.0554,4.0582,4.0603,4.0625,4.0652,4.0662,4.0678,4.0684,4.067,4.0673,4.0674,4.0673,4.0675,4.0676,4.0686,4.0686,4.0686,0,4.0357,4.037,4.0408,4.0422,4.0438,4.0459,4.0474,4.05,4.0514,4.0544,4.0553,4.0575,4.0594,4.0625,4.0646,4.0667,4.0673,4.0672,4.0676,4.067,4.0673,4.0672,4.0673,4.0671,4.0671,4.0671,4.067,0,4.0351,4.0364,4.0387,4.0414,4.0432,4.0453,4.0475,4.0484,4.0514,4.0529,4.0551,4.0566,4.0595,4.0616,4.0639,4.0654,4.0666,4.0669,4.0671,4.0665,4.0657,4.0661,4.0667,4.0669,4.0669,4.0669,4.0669,4.0669,4.0343,4.0356,4.0385,4.0409,4.0429,4.045,4.0464,4.0485,4.0504,4.0531,4.0545,4.0566,4.059,4.0623,4.0637,4.0653,4.0657,4.0659,4.0659,4.066,4.0658,4.0654,4.0657,4.0657,4.0657,4.0657,4.0657,0,4.0339,4.0359,4.0381,4.0413,4.0431,4.0444,4.0469,4.0483,4.0503,4.0524,4.0544,4.0568,4.0589,4.0612,4.0634,4.0642,4.0648,4.0647,4.0646,4.0649,4.0653,4.065,4.0641,4.0641,4.0641,4.0641,4.0641,4.0641,4.0339,4.0362,4.0378,4.0409,4.0429,4.0452,4.0465,4.0483,4.0501,4.0529,4.0547,4.0563,4.0585,4.0608,4.0627,4.0633,4.064,4.0637,4.0644,4.0648,4.0649,4.065,4.0647,4.0638,4.0638,4.0639,4.0639,4.0639]}]]